Location: Bon Acre
(42.6442°N, 73.5758°W)
Time: 06:59:32
(UTC+00:00)

SL-08 R/B - Visible Passes

Search period start: 11 March 2026 00:00
Search period end: 21 March 2026 00:00
Orbit: 944 x 993 km, 83.0° (Epoch: 10 March)

Date Brightness Start Highest point End Pass type
(mag) Time Alt. Az. Time Alt. Az. Time Alt. Az.
11 Mar 6.4 02:40:31 21° N 02:40:31 21° N 02:42:21 10° N visible
12 Mar 6.3 01:18:41 15° NE 01:18:41 15° NE 01:19:53 10° NNE visible
12 Mar 6.4 03:03:10 22° NNW 03:03:10 22° NNW 03:05:28 10° N visible
13 Mar 5.9 01:41:15 25° NNE 01:41:15 25° NNE 01:43:43 10° NNE visible
13 Mar 6.6 03:25:43 19° NW 03:25:43 19° NW 03:28:15 10° NNW visible
14 Mar 5.5 02:03:44 37° N 02:03:44 37° N 02:07:14 10° N visible
14 Mar 7.0 03:48:11 14° NW 03:48:11 14° NW 03:50:18 10° NNW visible
15 Mar 5.8 00:41:38 20° ENE 00:41:38 20° ENE 00:44:21 10° NE visible
15 Mar 5.4 02:26:05 43° NNW 02:26:05 43° NNW 02:30:30 10° N visible
16 Mar 5.0 01:03:51 37° ENE 01:03:51 37° ENE 01:08:25 10° NNE visible
16 Mar 5.9 02:48:16 31° WNW 02:48:16 31° WNW 02:53:27 10° NNW visible
17 Mar 4.3 01:25:49 69° ESE 01:26:01 69° E 01:32:04 10° NNE visible
17 Mar 6.7 03:10:14 17° W 03:11:51 18° WNW 03:15:57 10° NNW visible
18 Mar 5.8 00:03:03 15° ESE 00:04:50 17° E 00:08:38 10° NE visible
18 Mar 4.6 01:47:27 45° SSW 01:49:21 69° W 01:55:27 10° N visible
18 Mar 7.2 03:35:17 10° WNW 03:35:47 10° WNW 03:36:19 10° NW visible
19 Mar 5.1 00:23:58 16° SE 00:27:49 30° E 00:33:01 10° NNE visible
19 Mar 5.6 02:08:17 15° SW 02:12:51 40° WNW 02:18:34 10° N visible
20 Mar 4.5 00:45:04 10° SSE 00:50:57 53° E 00:56:51 10° NNE visible
20 Mar 6.4 02:31:44 10° WSW 02:36:31 24° WNW 02:41:19 10° NNW visible
20 Mar 6.0 23:27:24 10° ESE 23:29:57 13° ENE 23:32:30 10° NE visible
